• Join FlightAware (Why Join?)
  • Login
  • US Flag 
02:45PM EDT


 

Airport Tracker/Info


-or-


 

Live Flight TrackerFlight Track Log ✈ WIG1063 ✈ 28-Aug-2013 ✈ KBTV - KMHT

Flight Track Log - Related Links

Times and Time Zones

All times are in EDT time to prevent confusion due to time zone crossing. See the WIG1063 flight status page for this flight to view local times or setup timezone preferences in your user account.

Time Position Orientation Groundspeed Altitude Reporting Facility
EDT Latitude Longitude Course Direction KTS MPH feet Rate Location/Type
07:17PM 44.4764 -73.0422 138° Southeast 168 193 6,100  Level Boston Center
07:18PM 44.4392 -72.9953 138° Southeast 181 208 7,200 1,080 Climbing Boston Center
07:19PM 44.3978 -72.9544 145° Southeast 192 221 8,300 840 Climbing Boston Center
07:20PM 44.2367 -72.8823 136° Southeast  Level FlightAware Approximate
07:20PM 44.3542 -72.9133 146° Southeast 192 221 9,000  Level Boston Center
07:21PM 44.2006 -72.8342 136° Southeast  Level FlightAware Approximate
07:21PM 44.3042 -72.8694 148° Southeast 203 234 9,100  Level Boston Center
07:22PM 44.1635 -72.7877 138° Southeast  Level FlightAware Approximate
07:22PM 44.2567 -72.8169 142° Southeast 208 239 9,100  Level Boston Center
07:23PM 44.2067 -72.7617 142° Southeast 218 251 9,100  Level Boston Center
07:24PM 44.1589 -72.7092 142° Southeast 223 257 9,100  Level Boston Center
07:25PM 44.1047 -72.6569 145° Southeast 223 257 9,100  Level Boston Center
07:26PM 44.0528 -72.6106 147° Southeast 223 257 9,100  Level Boston Center
07:27PM 44.0069 -72.5614 142° Southeast 223 257 9,100  Level Boston Center
07:28PM 43.9572 -72.5092 143° Southeast 223 257 9,100  Level Boston Center
07:29PM 43.9050 -72.4458 139° Southeast 228 262 9,100  Level Boston Center
07:30PM 43.8550 -72.3911 142° Southeast 228 262 9,100  Level Boston Center
07:31PM 43.8028 -72.3394 144° Southeast 228 262 9,200  Climbing Boston Center
07:32PM 43.7528 -72.2906 145° Southeast 228 262 9,200  Level Boston Center
07:33PM 43.7006 -72.2333 142° Southeast 228 262 9,200 -60 Level Boston Center
07:34PM 43.6547 -72.1819 141° Southeast 228 262 9,100 -60 Descending Boston Center
07:35PM 43.6003 -72.1306 146° Southeast 228 262 9,100  Level Boston Center
07:36PM 43.5522 -72.0764 141° Southeast 228 262 9,100 -240 Level Boston Center
07:37PM 43.5022 -72.0194 140° Southeast 228 262 8,700 -600 Descending Boston Center
07:38PM 43.4497 -71.9597 140° Southeast 233 268 8,000 -660 Descending Boston Center
07:39PM 43.3975 -71.9028 142° Southeast 233 268 7,400 -600 Descending Boston Center
07:40PM 43.3469 -71.8347 136° Southeast 239 275 6,800 -840 Descending Boston Center
07:41PM 43.2989 -71.7725 137° Southeast 239 275 5,800 -900 Descending Boston Center
07:42PM 43.2442 -71.7189 144° Southeast 238 274 5,000 -720 Descending Boston Center
07:43PM 43.1939 -71.6683 144° Southeast 238 274 4,400 -720 Descending Boston Center
07:44PM 43.1500 -71.6167 139° Southeast 228 262 3,700 -720 Descending KA90
07:45PM 43.0931 -71.5617 145° Southeast 228 262 3,100 -540 Descending Boston Center
07:46PM 43.0469 -71.5083 140° Southeast 228 262 2,700 -780 Descending Boston Center
07:47PM 42.9986 -71.4750 153° Southeast 204 235 1,600 -960 Descending Boston Center
07:48PM 42.9692 -71.4556 154° Southeast 157 181 800 -840 Descending Boston Center
07:50PM 42.9328 -71.4358 151° Southeast  Level Estimated